Tenerife, El Salvador

8:24 AM WEST en Septiembre 20, 2018 (GMT +0100)
Tenerife

Tiempo Historia de GCXO - Enero, 2018

Change the Weather History Date:

Sábado, Enero 13, 2018

  Actual Average Record
Temperature  
Temperatura media 56 ° F -  
Temperatura máxima 60 ° F 58 ° F 73 ° F (2016)
Temperatura mínima 52 ° F 49 ° F 41 ° F (2008)
Degree Days  
Grados día de calefacción 9    
Growing Degree Days 6 (Base 50)    
Moisture  
Punto de rocío 50 ° F    
Average Humidity 82    
Maximum Humidity 100    
Minimum Humidity 58    
Precipitación  
Precipitación 0.01 pul - - ()
Presión al nivel del mar  
Presión al nivel del mar 30.28 pul    
Viento  
Velocidad del viento 10 mph ()    
Velocidad máxima del viento 16 mph    
Max Gust Speed 22 mph    
Visibilidad 6.8 Millas    
Eventos      
Averages and records for this station are not official NWS values.
T = Trace of Precipitation, MM = Missing Value Source: Averaged Metar Reports

Daily Weather History Graph

Daily Weather History Graph

Search for Another Location

Airport or City:

Astronomía

Jan. 13, 2018 Salida Puesta
Hora real 7:59 AM WET 6:29 PM WET
Crepúsculo civil 7:33 AM WET 6:54 PM WET
Crepúsculo náutico 7:04 AM WET 7:23 PM WET
Crepúsculo astronómico 6:36 AM WET 7:52 PM WET
Luna 4:54 AM WET (1/13) 3:53 PM WET (1/13)
Horas de luz 11h 21m
Horas de luz
10h 30m
Creciente menguante, 11% of the Moon is Illuminated
Ene 13
Creciente menguante
Ene 17
Nueva
Ene 24
Cuarto creciente
Ene 31
Luna llena
Feb 7
Cuarto menguante

Hourly Weather History & Observations

Hora (WET) Temp. Punto de rocío Humedad Presión Visibilidad Wind Dir Velocidad del viento Velocidad de ráfagas Precip Eventos Condiciones
12:00 AM 54 ° F 49 ° F 77% 30.27 pul 19 mi NO 13.8 mph - -  
12:00 AM 53.6 ° F 50.0 ° F 88% 30.27 pul 6.2 mi NO 12.7 mph - N/A   Nublado
12:30 AM 53.6 ° F 48.2 ° F 82% 30.27 pul 6.2 mi NO 13.8 mph - N/A   Nublado
1:00 AM 53.6 ° F 48.2 ° F 82% 30.27 pul 6.2 mi NNO 15.0 mph - N/A   Nublado
1:30 AM 53.6 ° F 48.2 ° F 82% 30.24 pul 6.2 mi NO 15.0 mph - N/A   Nublado
2:00 AM 53.6 ° F 48.2 ° F 82% 30.24 pul 6.2 mi ONO 16.1 mph - N/A   Nublado
2:30 AM 53.6 ° F 48.2 ° F 82% 30.24 pul 6.2 mi NO 13.8 mph - N/A   Nublado
3:00 AM 53.6 ° F 48.2 ° F 82% 30.24 pul 6.2 mi NO 12.7 mph - N/A   Nublado
3:30 AM 53.6 ° F 48.2 ° F 82% 30.24 pul 6.2 mi NNO 8.1 mph - N/A   Nublado
4:30 AM 53.6 ° F 48.2 ° F 82% 30.24 pul 6.2 mi NO 11.5 mph - N/A   Nublado
5:00 AM 53.6 ° F 48.2 ° F 82% 30.21 pul 6.2 mi NO 10.4 mph - N/A   Nublado
5:30 AM 53.6 ° F 48.2 ° F 82% 30.24 pul 6.2 mi NO 10.4 mph - N/A   Nublado
6:00 AM 53 ° F 48 ° F 78% 30.24 pul 19 mi NO 11.5 mph - -   Muy nublado
6:00 AM 53.6 ° F 48.2 ° F 82% 30.24 pul 6.2 mi NNO 10.4 mph - N/A   Muy nublado
6:30 AM 53.6 ° F 48.2 ° F 82% 30.24 pul 6.2 mi NO 11.5 mph - N/A   Muy nublado
7:00 AM 53.6 ° F 48.2 ° F 82% 30.24 pul 6.2 mi NO 11.5 mph - N/A   Muy nublado
8:00 AM 53.6 ° F 48.2 ° F 82% 30.27 pul 6.2 mi NO 13.8 mph - N/A   Muy nublado
8:30 AM 53.6 ° F 48.2 ° F 82% 30.27 pul 6.2 mi NO 12.7 mph - N/A   Muy nublado
9:00 AM 54 ° F 48 ° F 72% 30.28 pul 19 mi NO 12.7 mph - -   Muy nublado
9:00 AM 53.6 ° F 48.2 ° F 82% 30.27 pul 6.2 mi NNO 11.5 mph - N/A   Muy nublado
9:30 AM 55.4 ° F 48.2 ° F 77% 30.30 pul 6.2 mi NO 15.0 mph - N/A   Muy nublado
10:00 AM 55.4 ° F 48.2 ° F 77% 30.30 pul 6.2 mi NO 15.0 mph - N/A   Muy nublado
10:30 AM 55.4 ° F 48.2 ° F 77% 30.30 pul 6.2 mi NO 12.7 mph - N/A   Muy nublado
11:00 AM 59.0 ° F 50.0 ° F 72% 30.33 pul 6.2 mi NNO 10.4 mph 21.9 mph N/A   Muy nublado
11:30 AM 59.0 ° F 50.0 ° F 72% 30.33 pul 6.2 mi Variable 8.1 mph - N/A   Muy nublado
12:00 PM 60 ° F 49 ° F 58% 30.30 pul 19 mi Norte 9.2 mph - -   Muy nublado
12:00 PM 59.0 ° F 50.0 ° F 72% 30.33 pul 6.2 mi Norte 9.2 mph - N/A   Muy nublado
12:30 PM 59.0 ° F 48.2 ° F 67% 30.33 pul 6.2 mi NNE 9.2 mph 20.7 mph N/A   Muy nublado
1:00 PM 59.0 ° F 48.2 ° F 67% 30.30 pul 6.2 mi Norte 6.9 mph - N/A   Muy nublado
1:30 PM 57.2 ° F 48.2 ° F 72% 30.30 pul 6.2 mi Norte 9.2 mph - N/A   Muy nublado
2:00 PM 59.0 ° F 50.0 ° F 72% 30.27 pul 6.2 mi Norte 8.1 mph - N/A   Muy nublado
2:30 PM 59.0 ° F 50.0 ° F 72% 30.27 pul 6.2 mi Norte 6.9 mph - N/A   Nubes dispersas
3:00 PM 59.0 ° F 48.2 ° F 67% 30.27 pul 6.2 mi Variable 5.8 mph - N/A   Nubes dispersas
3:30 PM 59.0 ° F 50.0 ° F 72% 30.27 pul 6.2 mi Norte 9.2 mph - N/A   Nubes dispersas
4:00 PM 59.0 ° F 50.0 ° F 72% 30.27 pul 6.2 mi NNE 8.1 mph - N/A   Muy nublado
4:30 PM 57.2 ° F 51.8 ° F 82% 30.27 pul 6.2 mi Variable 2.3 mph - N/A   Muy nublado
5:00 PM 57.2 ° F 51.8 ° F 82% 30.27 pul 6.2 mi NNO 4.6 mph - N/A   Muy nublado
5:30 PM 55.4 ° F 51.8 ° F 88% 30.27 pul 6.2 mi NNE 4.6 mph - N/A   Muy nublado
6:00 PM 56 ° F 52 ° F 83% 30.25 pul 7 mi NO 8.1 mph - -   Muy nublado
6:00 PM 55.4 ° F 51.8 ° F 88% 30.27 pul 6.2 mi NNO 6.9 mph - N/A   Muy nublado
6:30 PM 55.4 ° F 53.6 ° F 94% 30.27 pul 6.2 mi NO 5.8 mph - N/A   Muy nublado
7:00 PM 55.4 ° F 51.8 ° F 88% 30.27 pul 6.2 mi NNO 8.1 mph - N/A   Muy nublado
7:30 PM 55.4 ° F 51.8 ° F 88% 30.27 pul 6.2 mi Norte 3.5 mph - N/A   Muy nublado
8:00 PM 55.4 ° F 51.8 ° F 88% 30.27 pul 6.2 mi Variable 1.2 mph - N/A   Muy nublado
8:30 PM 55.4 ° F 53.6 ° F 94% 30.27 pul 5.6 mi ONO 3.5 mph - N/A   Muy nublado
8:43 PM 55.4 ° F 53.6 ° F 94% 30.30 pul 2.5 mi ONO 3.5 mph - N/A   Muy nublado
9:00 PM 55.4 ° F 53.6 ° F 94% 30.30 pul 3.1 mi Variable 2.3 mph - N/A   Llovizna débil
9:15 PM 55.4 ° F 53.6 ° F 94% 30.30 pul 5.0 mi Oeste 3.5 mph - N/A   Muy nublado
9:30 PM 55.4 ° F 53.6 ° F 94% 30.30 pul 3.7 mi Variable 2.3 mph - N/A   Llovizna débil
10:00 PM 55.4 ° F 55.4 ° F 100% 30.30 pul 4.3 mi Oeste 4.6 mph - N/A   Llovizna débil
10:18 PM 55.4 ° F 55.4 ° F 100% 30.30 pul 4.3 mi Oeste 5.8 mph - N/A   Llovizna
10:30 PM 55.4 ° F 55.4 ° F 100% 30.30 pul 4.3 mi Oeste 5.8 mph - N/A   Llovizna
11:00 PM 55.4 ° F 55.4 ° F 100% 30.30 pul 5.0 mi ONO 8.1 mph - N/A   Llovizna
11:30 PM 55.4 ° F 55.4 ° F 100% 30.30 pul 4.3 mi NO 5.8 mph - N/A   Nublado